Flag for U.S.A. Weather past 2 weeks in Arden-Arcade, California, U.S.A.

Now
61 °F

Passing clouds.


Feels Like: 61 °F
Forecast: 50 / 70 °F
Wind: 9 mph from Northwest

Location: Mather Field

Current Time: Oct 21, 2014 at 11:52:17 AM

Latest Report: Oct 21, 2014 at 10:45 AM


Visibility: 10 mi

Pressure: 30.09 "Hg

Humidity: 68%

Dew point: 50 °F

Location of Arden-ArcadeLocation

Historic Weather in Arden-Arcade — Graph

°F

Arden-Arcade temperature yesterday

Maximum temperature yesterday: 72 °F (at 3:46 PM)
Minimum temperature yesterday: 54 °F (at 10:55 PM)
Average temperature yesterday: 63 °F

Past Weeks' High & Low Weather Summary

 TemperatureHumidityPressure
High95 °F (Oct 8, 3:45 PM)100% (Oct 8, 5:46 AM)30.11 "Hg (Oct 8, 5:46 AM)
Low45 °F (Oct 21, 5:48 AM)10% (Oct 12, 3:54 PM)29.78 "Hg (Oct 7, 5:59 PM)
Average67 °F58%29.92 "Hg
* Reported Oct 6 10:46 AM — Oct 21 10:45 AM, Arden-Arcade, Weather by CustomWeather, © 2014

Note: Actual official high and low records may vary slightly from our data, if they occured in-between our weather recording intervals... More about our weather records

Advertising

Arden-Arcade weather history for previous 24 hours

 ConditionsComfort  
Time TempWeatherWind HumidityBarometerVisibility
10:45 AM
Oct 21
61 °FPassing clouds.9 mph68%30.09 "Hg10 mi
9:46 AM57 °FScattered clouds.6 mph77%30.10 "Hg10 mi
8:48 AM54 °FScattered clouds.No wind94%30.11 "Hg10 mi
7:46 AM46 °FPassing clouds.No wind100%30.09 "Hg10 mi
6:46 AM46 °FPassing clouds.3 mph100%30.07 "Hg10 mi
5:48 AM45 °FClear.No wind100%30.08 "Hg10 mi
4:52 AM46 °FClear.No wind100%30.07 "Hg10 mi
3:50 AM46 °FClear.5 mph100%30.06 "Hg10 mi
2:51 AM48 °FClear.7 mph100%30.07 "Hg10 mi
10:55 PM
Oct 20
54 °FClear.No wind94%30.03 "Hg10 mi
9:55 PM57 °FPassing clouds.5 mph77%30.01 "Hg10 mi
8:55 PM59 °FPassing clouds.10 mph72%29.98 "Hg10 mi
7:55 PM63 °FPassing clouds.8 mph59%29.97 "Hg10 mi
6:50 PM66 °FPartly sunny.16 mph52%29.94 "Hg10 mi
5:49 PM66 °FBroken clouds.8 mph64%29.92 "Hg10 mi
4:52 PM68 °FPartly sunny.13 mph53%29.92 "Hg10 mi
3:46 PM72 °FPartly sunny.13 mph50%29.92 "Hg10 mi
2:50 PM70 °FMostly cloudy.12 mph60%29.93 "Hg10 mi
1:50 PM70 °FOvercast.13 mph64%29.93 "Hg10 mi
12:50 PM70 °FMostly cloudy.13 mph60%29.94 "Hg10 mi
11:46 AM70 °FPartly sunny.9 mph60%29.95 "Hg10 mi
Weather by CustomWeather, © 2014

See weather overviewHow to use our weather pages